WARM SPRINGS (USACE) (WRS)

Elevation: 440' · RUSSIAN R basin · Operator: US Army Corps of Engineers

Provisional data, subject to change.
Query executed Tuesday at 7:12:23   clock

Select a sensor type for a plot of data.
Note: Reservoir Flows are daily averages.

Earlier

Date RES ELE    STORAGE    RES CHG    TOC STO    ABV TOC    OUTFLOW    INFLOW    PPT INC    TEMP MN    TEMP MX    EVP PAN   
 FEET   AF   AF   AF   AF   CFS   CFS   INCHES   DEG F   DEG F   INCHES  
03/23/2015 439.97 216942 -73 245000 -28058 81 51 0.02 8 19 0.10
03/24/2015 439.93 216844 -98 245000 -28156 81 38 0.02 9 21 0.09
03/25/2015 439.90 216771 -73 245000 -28229 80 52 0.03 10 29 0.12
03/26/2015 439.86 216674 -97 245000 -28326 81 40 0.00 8 31 0.13
03/27/2015 439.81 216553 -121 245000 -28447 80 27 0.00 8 26 0.12
03/28/2015 -- -- -- -- -- -- -- -- -- -- --
03/29/2015 439.71 216310 -- 245000 -- 81 29 0.01 11 33 0.14
03/30/2015 439.66 216189 -- 245000 -- 81 30 0.00 10 31 0.15
03/31/2015 439.59 216019 -170 r 245000 -- 81 5 0.00 11 23 0.14
04/01/2015 439.54 215898 -- 245000 -29102 81 28 0.00 6 22 0.12
04/02/2015 439.44 215656 -242 245000 -29344 81 -32 0.00 5 25 0.13
04/03/2015 439.39 215535 -121 245000 -29465 80 29 0.00 8 26 0.14
04/04/2015 439.34 215414 -121 245000 -29586 81 28 0.00 6 22 0.13
04/05/2015 439.31 215341 -73 245000 -29659 80 50 0.04 4 17 0.09
04/06/2015 439.27 215245 -96 245000 -29755 80 37 0.22 1 16 0.08
04/07/2015 439.43 215632 387 245000 -29368 81 281 1.51 6 14 0.07
04/08/2015 439.38 215511 -121 245000 -29489 80 27 0.02 5 21 0.12
04/09/2015 439.35 215438 -73 245000 -29562 79 51 0.02 4 22 0.12
04/10/2015 439.32 215366 -72 245000 -29634 78 51 0.01 4 24 0.13
04/11/2015 439.27 215245 -121 245000 -29755 79 27 0.01 8 25 0.14
04/12/2015 439.20 215075 -170 245000 -29925 78 3 0.02 10 28 0.15
04/13/2015 439.15 214955 -- 245000 -- 78 27 0.00 4 24 0.14
04/14/2015 439.07 214761 -- 245000 -- 78 -10 0.00 6 22 0.15
04/15/2015 439.03 214665 -96 245000 -30335 78 41 0.00 8 28 0.16
04/16/2015 438.97 214520 -145 245000 -30480 78 18 0.02 10 32 0.19
04/17/2015 438.91 214375 -145 245000 -30625 79 17 0.00 6 29 0.17
04/18/2015 438.86 214255 -120 245000 -30745 79 29 0.00 7 28 0.17
04/19/2015 438.81 214134 -121 245000 -30866 79 29 0.00 8 25 0.16
04/20/2015 438.76 214014 -120 245000 -30986 79 28 0.00 11 23 0.15
04/21/2015 -- -- -- -- -- -- -- -- -- -- --

Later | Latest

Warning! This data is preliminary and subject to revision.

Show WRS Map | Plot WRS Data | 1 Month WRS Data | Real-Time WRS Data | WRS Info